Location: Oshawa
(43.9000°N, 78.8670°W)
Time: 10:56:55
(UTC-05:00)

Amateur Radio Satellites - All Passes

Search period start: 23 November 2014 10:26
Search period end: 24 November 2014 10:26
Location: Oshawa, 43.9000°N, 78.8670°W

Satellite Date Start Highest point End Downlink Frequencies (MHz)
Time Altitude Azimuth
ESTCUBE 1 23 Nov 10:26:45 10:29:29 16° 91° (E) 10:32:12 437.505/2401.250
DUCHIFAT 1 23 Nov 10:28:37 10:32:52 75° 258° (WSW) 10:37:08 145.980
UNISAT 6 23 Nov 10:32:47 10:36:54 46° 261° (W) 10:41:02 437.425
SHINDAISAT 23 Nov 10:36:38 10:37:53 18° 118° (ESE) 10:39:09 437.305
AAUSAT CUBESAT 2 23 Nov 10:37:57 10:41:20 24° 293° (WNW) 10:44:42 437.432
VELOX 1 23 Nov 10:38:05 10:42:25 50° 100° (E) 10:46:41 145.980
CANX-2 23 Nov 10:39:08 10:41:40 16° 297° (WNW) 10:44:12 2200.000
DOVE 4 23 Nov 10:42:47 10:46:16 27° 292° (WNW) 10:49:47 437.250
ZACube-1 23 Nov 10:47:37 10:51:50 79° 284° (WNW) 10:56:06 437.345
NANOSAT C BR1 23 Nov 10:47:44 10:51:50 45° 261° (W) 10:55:56 145.865
COMPASS 1 23 Nov 10:51:42 10:54:19 16° 296° (WNW) 10:56:56 437.405
HUMSAT D 23 Nov 10:54:04 10:58:14 76° 102° (ESE) 11:02:25 437.325/437.525
QB50P1 23 Nov 10:57:24 11:01:20 36° 262° (W) 11:05:17 145.935-145.965
DELFI C3 23 Nov 10:58:29 11:02:07 30° 291° (WNW) 11:05:43 145.870
ANTELSAT 23 Nov 11:02:02 11:05:29 23° 266° (W) 11:08:56 437.575/2403.000
AISAT 23 Nov 11:02:20 11:06:48 88° 284° (WNW) 11:11:13 437.250
50 SAT 23 Nov 11:03:31 11:07:35 81° 103° (ESE) 11:11:40 437.505
HO-68 23 Nov 11:05:27 11:11:09 27° 303° (WNW) 11:16:50 435.675
GOMX 1 23 Nov 11:12:39 11:13:51 11° 299° (WNW) 11:15:03 467.674
Oscar 19 23 Nov 11:15:15 11:17:02 12° 56° (NE) 11:18:50 437.125/150
POPSAT HIP 1 23 Nov 11:22:44 11:25:55 20° 267° (W) 11:29:06 437.405
FUNcube-1 23 Nov 11:23:56 11:27:41 32° 290° (WNW) 11:31:29 145.935
BUGSAT 1 23 Nov 11:24:52 11:28:14 22° 266° (W) 11:31:36 437.445
GONETS M04 23 Nov 11:25:38 11:30:21 15° 305° (NW) 11:35:07
UKube-1 23 Nov 11:26:42 11:29:40 18° 297° (WNW) 11:32:38 .
CUBEBUG 1 23 Nov 11:26:49 11:31:10 62° 101° (E) 11:35:28 437.445
TISAT 1 23 Nov 11:28:05 11:30:46 16° 92° (E) 11:33:25 437.305
SPROUT 23 Nov 11:28:30 11:30:56 15° 91° (E) 11:33:22 437.525
SO-50 23 Nov 11:29:44 11:32:55 17° 35° (NE) 11:36:07 436.795
CUBEBUG 2 23 Nov 11:36:18 11:39:17 19° 295° (WNW) 11:42:19 437.445
Oscar 11 23 Nov 11:41:35 11:43:09 12° 300° (WNW) 11:44:43 145.826/435.025
UWE-3 23 Nov 11:42:59 11:45:56 19° 295° (WNW) 11:48:55 435.000/436.395/437.385
CINEMA 3 23 Nov 11:43:10 11:44:33 11° 299° (WNW) 11:45:55 145.822/145.860
YUBILEINY 23 Nov 11:47:42 11:51:23 13° 53° (NE) 11:55:02 435.215
ITAMSAT 1 23 Nov 12:00:58 12:03:18 13° 57° (ENE) 12:05:37 435.822/435.867
ESTCUBE 1 23 Nov 12:02:15 12:06:43 55° 288° (WNW) 12:11:08 437.505/2401.250
VELOX 1 23 Nov 12:15:40 12:18:38 18° 297° (WNW) 12:21:35 145.980
Gurwin Techsat 1B 23 Nov 12:17:06 12:18:02 10° 54° (NE) 12:18:58 435.225
ITUPSAT 1 23 Nov 12:28:25 12:30:00 11° 88° (E) 12:31:35 437.325
HUMSAT D 23 Nov 12:32:14 12:33:28 11° 299° (WNW) 12:34:42 437.325/437.525
SWISSCUBE 23 Nov 12:39:18 12:42:24 17° 91° (E) 12:45:28 437.505
AISAT 23 Nov 12:41:59 12:42:43 10° 302° (WNW) 12:43:26 437.250
50 SAT 23 Nov 12:42:05 12:42:18 10° 300° (WNW) 12:42:31 437.505
AO-7 23 Nov 12:48:55 12:51:42 12° 38° (NE) 12:54:29 29.400- 29.500
Oscar 19 23 Nov 12:50:26 12:55:32 80° 74° (ENE) 13:00:41 437.125/150
TISAT 1 23 Nov 13:02:49 13:06:52 45° 289° (WNW) 13:10:52 437.305
SPROUT 23 Nov 13:03:11 13:07:21 52° 288° (WNW) 13:11:30 437.525
CUBEBUG 1 23 Nov 13:04:39 13:07:03 15° 299° (WNW) 13:09:26 437.445
HORYU 2 23 Nov 13:06:46 13:07:34 10° 58° (ENE) 13:08:23 437.375
SO-50 23 Nov 13:09:20 13:14:13 82° 55° (NE) 13:19:08 436.795
BEESAT 23 Nov 13:10:10 13:14:26 31° 96° (E) 13:18:40 436.000
AUBIESAT-1 23 Nov 13:18:57 13:23:41 46° 104° (ESE) 13:28:21 437.475
M-CUBED/EXP-1 PRIME 23 Nov 13:21:59 13:26:50 53° 105° (ESE) 13:31:36 437.505
ITAMSAT 1 23 Nov 13:36:46 13:41:59 86° 75° (ENE) 13:47:14 435.822/435.867
YUBILEINY 23 Nov 13:41:44 13:50:22 61° 77° (ENE) 13:58:55 435.215
Gurwin Techsat 1B 23 Nov 13:51:44 13:57:00 68° 73° (ENE) 14:02:18 435.225
STARS 23 Nov 13:52:00 13:53:20 11° 89° (E) 13:54:41 437.465
ITUPSAT 1 23 Nov 14:03:40 14:08:30 81° 285° (WNW) 14:13:18 437.325
CUSAT 1 23 Nov 14:09:21 14:11:37 22° 285° (WNW) 14:13:46 437.405
JAS-2 23 Nov 14:12:07 14:13:18 10° 45° (NE) 14:14:29 435.910
SWISSCUBE 23 Nov 14:15:54 14:20:38 57° 288° (WNW) 14:25:18 437.505
DANDE 23 Nov 14:22:30 14:24:40 19° 285° (WNW) 14:26:42 436.750
KKS-1 23 Nov 14:24:12 14:28:20 37° 98° (E) 14:32:26 437.445
Oscar 19 23 Nov 14:33:16 14:35:30 13° 272° (W) 14:37:44 437.125/150
AO-7 23 Nov 14:34:39 14:42:24 47° 61° (ENE) 14:50:13 29.400- 29.500
HORYU 2 23 Nov 14:39:06 14:43:31 88° 75° (ENE) 14:47:59 437.375
BEESAT 23 Nov 14:48:02 14:52:14 31° 293° (WNW) 14:56:25 436.000
SO-50 23 Nov 14:51:43 14:54:09 14° 252° (WSW) 14:56:34 436.795
AUBIESAT-1 23 Nov 14:54:25 14:58:24 25° 300° (WNW) 15:02:22 437.475
M-CUBED/EXP-1 PRIME 23 Nov 14:57:43 15:01:30 23° 301° (WNW) 15:05:17 437.505
ITAMSAT 1 23 Nov 15:20:05 15:22:09 12° 272° (W) 15:24:13 435.822/435.867
STARS 23 Nov 15:25:56 15:30:20 72° 286° (WNW) 15:34:42 437.465
Gurwin Techsat 1B 23 Nov 15:34:11 15:37:28 16° 270° (W) 15:40:45 435.225
MaSat-1 23 Nov 15:35:07 15:37:55 33° 113° (ESE) 15:40:30 437.345
YUBILEINY 23 Nov 15:39:20 15:46:35 31° 278° (W) 15:53:49 435.215
PHONESAT 2.4 23 Nov 15:43:14 15:45:39 17° 152° (SSE) 15:48:04 2401.200-2431.200
ITUPSAT 1 23 Nov 15:44:19 15:45:35 11° 303° (WNW) 15:46:51 437.325
JAS-2 23 Nov 15:49:15 15:56:20 44° 65° (ENE) 16:03:40 435.910
RS-15 23 Nov 15:52:36 16:02:32 42° 109° (ESE) 16:12:25 29.354- 29.394
Cubesat XI-IV 23 Nov 15:57:31 15:59:32 12° 55° (NE) 16:01:33 437.490
KKS-1 23 Nov 16:01:17 16:04:47 23° 295° (WNW) 16:08:15 437.445
VERMONT LUNAR 23 Nov 16:05:05 16:08:08 26° 159° (SSE) 16:11:12 437.305
O/OREOS (USA 219) 23 Nov 16:12:32 16:17:00 70° 65° (ENE) 16:21:27 437.305
AO-7 23 Nov 16:27:26 16:35:13 44° 261° (W) 16:43:05 29.400- 29.500
CUTE-I 23 Nov 16:36:57 16:41:16 26° 63° (ENE) 16:45:36 437.470
MOZHAYETS 4 23 Nov 16:44:57 16:49:12 34° 96° (E) 16:53:26
MaSat-1 23 Nov 17:11:31 17:12:38 12° 307° (NW) 17:13:43 437.345
PHONESAT 2.4 23 Nov 17:20:25 17:23:55 41° 168° (SSE) 17:27:26 2401.200-2431.200
PRISM 23 Nov 17:22:35 17:25:02 15° 91° (E) 17:27:29 437.425
Cubesat XI-IV 23 Nov 17:33:22 17:38:44 77° 74° (ENE) 17:44:07 437.490
JAS-2 23 Nov 17:34:07 17:41:15 45° 264° (W) 17:48:45 435.910
GONETS M04 23 Nov 17:36:46 17:41:23 15° 54° (NE) 17:45:57
VERMONT LUNAR 23 Nov 17:42:45 17:46:16 48° 176° (S) 17:49:47 437.305
STRAND 1 23 Nov 17:45:32 17:46:51 11° 87° (E) 17:48:09 437.568
O/OREOS (USA 219) 23 Nov 17:54:04 17:55:46 12° 262° (W) 17:57:28 437.305
RS-15 23 Nov 18:03:37 18:14:25 62° 312° (NW) 18:25:20 29.354- 29.394
HO-68 23 Nov 18:04:04 18:07:11 13° 47° (NE) 18:10:18 435.675
CUTE-I 23 Nov 18:15:54 18:21:03 47° 261° (W) 18:26:14 437.470
CUBESAT XI-V 23 Nov 18:18:48 18:22:37 24° 94° (E) 18:26:24 437.345
MOZHAYETS 4 23 Nov 18:22:24 18:26:18 27° 293° (WNW) 18:30:12
PRISM 23 Nov 18:56:46 19:00:54 51° 288° (WNW) 19:05:00 437.425
PHONESAT 2.4 23 Nov 18:58:52 19:02:28 48° 185° (S) 19:06:04 2401.200-2431.200
CUTE 1.7 & AOD 2 23 Nov 18:59:04 19:00:16 11° 60° (ENE) 19:01:29 437.475
GOMX 1 23 Nov 19:07:13 19:08:41 11° 61° (ENE) 19:10:07 467.674
Cubesat XI-IV 23 Nov 19:16:31 19:19:25 15° 271° (W) 19:22:18 437.490
BRITE-PL 23 Nov 19:19:42 19:23:27 22° 66° (ENE) 19:26:59 437.365/2234.400
VERMONT LUNAR 23 Nov 19:21:05 19:24:30 38° 193° (SSW) 19:27:54 437.305
STRAND 1 23 Nov 19:21:36 19:26:45 89° 105° (ESE) 19:31:51 437.568
GONETS M04 23 Nov 19:31:22 19:40:13 67° 78° (ENE) 19:48:56
SEEDS 23 Nov 19:33:15 19:36:27 22° 66° (ENE) 19:39:41 437.485
DX 1 23 Nov 19:45:38 19:47:35 13° 60° (ENE) 19:49:32 434.975-435.025
HO-68 23 Nov 19:46:26 19:53:27 60° 68° (ENE) 20:00:30 435.675
AIST 1 23 Nov 19:50:31 19:54:45 50° 93° (E) 19:59:02
AAUSAT CUBESAT 2 23 Nov 19:55:07 19:58:38 27° 68° (ENE) 20:02:11 437.432
CUBESAT XI-V 23 Nov 19:55:51 20:00:09 37° 291° (WNW) 20:04:24 437.345
CANX-2 23 Nov 19:56:32 20:00:34 46° 72° (ENE) 20:04:38 2200.000
COMPASS 1 23 Nov 20:08:04 20:11:59 42° 71° (ENE) 20:15:57 437.405
DOVE 4 23 Nov 20:12:04 20:16:17 35° 70° (ENE) 20:20:18 437.250
ZACube-1 23 Nov 20:13:07 20:13:43 10° 60° (ENE) 20:14:18 437.345
DELFI C3 23 Nov 20:14:18 20:17:14 20° 65° (ENE) 20:20:12 145.870
RS-15 23 Nov 20:20:37 20:29:35 28° 343° (NNW) 20:38:44 29.354- 29.394
PCSat 23 Nov 20:24:14 20:29:37 71° 118° (ESE) 20:35:02 145.827
AISAT 23 Nov 20:28:39 20:30:20 12° 59° (ENE) 20:32:01 437.250
CUTE 1.7 & AOD 2 23 Nov 20:31:22 20:35:35 79° 258° (WSW) 20:39:50 437.475
PHONESAT 2.4 23 Nov 20:37:48 20:40:53 25° 202° (SSW) 20:43:58 2401.200-2431.200
GOMX 1 23 Nov 20:41:21 20:46:14 88° 257° (WSW) 20:50:48 467.674
BEESAT 3 23 Nov 20:45:08 20:49:04 47° 119° (ESE) 20:53:04 437.485
FUNcube-1 23 Nov 20:45:54 20:49:11 22° 67° (ENE) 20:52:27 145.935
UKube-1 23 Nov 20:46:07 20:50:19 49° 71° (ENE) 20:54:32 .
BRITE-PL 23 Nov 20:56:47 21:01:43 48° 261° (W) 21:06:18 437.365/2234.400
BEESAT 2 23 Nov 20:58:16 21:02:19 58° 120° (ESE) 21:06:27 435.950
CUBEBUG 2 23 Nov 20:58:54 21:02:56 41° 71° (ENE) 21:06:53 437.445
Oscar 11 23 Nov 20:59:20 21:03:36 72° 75° (ENE) 21:07:55 145.826/435.025
VERMONT LUNAR 23 Nov 21:00:18 21:02:26 15° 209° (SSW) 21:04:34 437.305
STRAND 1 23 Nov 21:02:48 21:05:12 13° 303° (WNW) 21:07:35 437.568
UWE-3 23 Nov 21:04:37 21:08:37 41° 71° (ENE) 21:12:33 435.000/436.395/437.385
CINEMA 3 23 Nov 21:06:59 21:11:26 80° 76° (ENE) 21:15:43 145.822/145.860
SEEDS 23 Nov 21:08:16 21:12:06 35° 263° (W) 21:15:58 437.485
DX 1 23 Nov 21:18:52 21:23:15 74° 257° (WSW) 21:27:39 434.975-435.025
AIST 2 23 Nov 21:21:09 21:25:15 51° 119° (ESE) 21:29:25 435.215
ESTCUBE 1 23 Nov 21:28:10 21:31:17 19° 63° (ENE) 21:34:25 437.505/2401.250
GONETS M04 23 Nov 21:29:12 21:36:17 28° 279° (W) 21:43:20
AIST 1 23 Nov 21:29:59 21:32:44 16° 292° (WNW) 21:35:31
AAUSAT CUBESAT 2 23 Nov 21:30:45 21:34:17 27° 265° (W) 21:37:50 437.432
CANX-2 23 Nov 21:34:10 21:36:47 16° 269° (W) 21:39:25 2200.000
HO-68 23 Nov 21:35:32 21:41:32 28° 266° (W) 21:47:36 435.675
VELOX 1 23 Nov 21:37:18 21:41:40 55° 72° (ENE) 21:46:03 145.980
COMPASS 1 23 Nov 21:45:09 21:47:56 17° 268° (W) 21:50:45 437.405
ZACube-1 23 Nov 21:45:14 21:49:28 83° 257° (WSW) 21:53:40 437.345
HUMSAT D 23 Nov 21:47:49 21:51:54 64° 74° (ENE) 21:56:00 437.325/437.525
DELFI C3 23 Nov 21:48:32 21:52:18 37° 262° (W) 21:56:08 145.870
DOVE 4 23 Nov 21:50:21 21:54:07 24° 265° (W) 21:57:45 437.250
50 SAT 23 Nov 21:53:50 21:57:50 62° 74° (ENE) 22:01:49 437.505
AISAT 23 Nov 22:01:50 22:06:20 82° 257° (WSW) 22:10:50 437.250
POLYITAN 1 23 Nov 22:03:46 22:05:36 13° 90° (E) 22:07:26 437.675
QB50P2 23 Nov 22:06:35 22:08:43 14° 90° (E) 22:10:52 145.880/145.840
PCSat 23 Nov 22:09:20 22:13:34 23° 318° (NW) 22:17:49 145.827
TIGRISAT 23 Nov 22:11:34 22:15:04 23° 94° (E) 22:18:36 435.000
DUCHIFAT 1 23 Nov 22:13:55 22:16:33 16° 92° (E) 22:19:10 145.980
FUNcube-1 23 Nov 22:21:34 22:25:24 33° 263° (W) 22:29:12 145.935
TISAT 1 23 Nov 22:22:41 22:25:23 17° 63° (ENE) 22:28:05 437.305
UNISAT 6 23 Nov 22:23:27 22:27:23 31° 96° (E) 22:31:22 437.425
UKube-1 23 Nov 22:23:58 22:26:45 17° 268° (W) 22:29:33 .
BEESAT 3 23 Nov 22:24:14 22:27:31 22° 318° (NW) 22:30:52 437.485
CUBEBUG 1 23 Nov 22:24:22 22:28:45 62° 73° (ENE) 22:33:09 437.445
SPROUT 23 Nov 22:24:45 22:27:16 15° 63° (ENE) 22:29:47 437.525
NANOSAT C BR1 23 Nov 22:32:12 22:35:44 25° 95° (E) 22:39:14 145.865
CUBEBUG 2 23 Nov 22:36:52 22:39:50 18° 267° (W) 22:42:46 437.445
RS-15 23 Nov 22:37:28 22:46:40 29° 19° (NNE) 22:56:07 29.354- 29.394
BEESAT 2 23 Nov 22:37:54 22:40:58 20° 319° (NW) 22:44:05 435.950
Oscar 11 23 Nov 22:39:10 22:40:17 11° 272° (W) 22:41:24 145.826/435.025
QB50P1 23 Nov 22:41:32 22:45:20 32° 97° (E) 22:49:07 145.935-145.965
UWE-3 23 Nov 22:42:25 22:45:21 18° 267° (W) 22:48:16 435.000/436.395/437.385
M-CUBED/EXP-1 PRIME 23 Nov 22:42:25 22:43:14 11° 51° (NE) 22:44:04 437.505
ANTELSAT 23 Nov 22:51:36 22:55:59 61° 101° (E) 23:00:27 437.575/2403.000
AIST 2 23 Nov 23:00:47 23:04:09 22° 318° (NW) 23:07:34 435.215
CUSAT 1 23 Nov 23:01:44 23:04:41 17° 73° (ENE) 23:08:10 437.405
ESTCUBE 1 23 Nov 23:03:22 23:07:47 51° 260° (W) 23:12:15 437.505/2401.250
BUGSAT 1 23 Nov 23:05:21 23:09:20 47° 99° (E) 23:13:15 437.445
POPSAT HIP 1 23 Nov 23:05:44 23:09:55 59° 101° (E) 23:14:04 437.405
VELOX 1 23 Nov 23:15:55 23:18:36 16° 269° (W) 23:21:17 145.980
DANDE 23 Nov 23:16:21 23:19:25 19° 74° (ENE) 23:23:06 436.750
HUMSAT D 23 Nov 23:26:51 23:28:09 11° 271° (W) 23:29:27 437.325/437.525
50 SAT 23 Nov 23:32:21 23:33:34 11° 271° (W) 23:34:46 437.505
ITUPSAT 1 23 Nov 23:36:11 23:39:19 18° 61° (ENE) 23:42:28 437.325
ISS 23 Nov 23:36:46 23:38:49 16° 133° (SE) 23:40:52 145.825
POLYITAN 1 23 Nov 23:37:47 23:41:58 60° 287° (WNW) 23:46:07 437.675
QB50P2 23 Nov 23:40:51 23:45:01 56° 287° (WNW) 23:49:08 145.880/145.840
SWISSCUBE 23 Nov 23:47:19 23:51:07 24° 64° (ENE) 23:54:56 437.505
TIGRISAT 23 Nov 23:47:54 23:51:54 36° 290° (WNW) 23:55:59 435.000
DUCHIFAT 1 23 Nov 23:48:38 23:52:41 46° 288° (WNW) 23:56:43 145.980
TISAT 1 23 Nov 23:56:41 00:00:50 51° 260° (W) 00:05:01 437.305
SPROUT 23 Nov 23:58:40 00:02:55 57° 259° (W) 00:07:11 437.525
UNISAT 6 24 Nov 00:00:23 00:04:06 27° 293° (WNW) 00:07:53 437.425
CUBEBUG 1 24 Nov 00:03:18 00:05:32 14° 270° (W) 00:07:46 437.445
NANOSAT C BR1 24 Nov 00:07:56 00:11:37 29° 292° (WNW) 00:15:16 145.865
AUBIESAT-1 24 Nov 00:09:58 00:13:56 69° 69° (ENE) 00:18:20 437.475
M-CUBED/EXP-1 PRIME 24 Nov 00:13:26 00:17:25 83° 71° (ENE) 00:21:50 437.505
QB50P1 24 Nov 00:17:43 00:21:06 24° 294° (WNW) 00:24:29 145.935-145.965
BEESAT 24 Nov 00:18:06 00:22:35 42° 69° (ENE) 00:27:07 436.000
ANTELSAT 24 Nov 00:29:49 00:32:21 15° 298° (WNW) 00:34:53 437.575/2403.000
BUGSAT 1 24 Nov 00:41:56 00:44:28 16° 297° (WNW) 00:46:59 437.445
POPSAT HIP 1 24 Nov 00:43:07 00:45:22 14° 298° (WNW) 00:47:36 437.405
CUSAT 1 24 Nov 00:43:35 00:47:48 52° 262° (W) 00:53:27 437.405
RS-15 24 Nov 00:50:38 01:01:45 65° 49° (NE) 01:13:18 29.354- 29.394
STARS 24 Nov 00:50:42 00:52:53 14° 61° (ENE) 00:55:04 437.465
YUBILEINY 24 Nov 00:54:15 00:57:30 13° 72° (ENE) 01:00:45 435.215
DANDE 24 Nov 00:58:53 01:02:51 43° 262° (W) 01:08:08 436.750
Oscar 19 24 Nov 01:01:08 01:05:24 25° 94° (E) 01:09:39 437.125/150
ISS 24 Nov 01:11:49 01:15:06 74° 330° (NNW) 01:18:24 145.825
ITUPSAT 1 24 Nov 01:11:59 01:16:44 61° 259° (WSW) 01:21:32 437.325
MaSat-1 24 Nov 01:12:41 01:14:59 75° 244° (WSW) 01:17:20 437.345
KKS-1 24 Nov 01:23:54 01:28:04 40° 70° (ENE) 01:32:15 437.445
SWISSCUBE 24 Nov 01:24:12 01:28:45 42° 262° (W) 01:33:20 437.505
AUBIESAT-1 24 Nov 01:48:18 01:49:34 11° 268° (W) 01:50:52 437.475
ITAMSAT 1 24 Nov 01:48:48 01:53:12 27° 95° (E) 01:57:33 435.822/435.867
BEESAT 24 Nov 01:56:51 02:00:36 23° 266° (W) 02:04:23 436.000
Gurwin Techsat 1B 24 Nov 02:07:11 02:11:28 24° 93° (E) 02:15:43 435.225
STARS 24 Nov 02:24:26 02:28:50 69° 258° (WSW) 02:33:14 437.465
HORYU 2 24 Nov 02:30:40 02:33:24 16° 91° (E) 02:36:07 437.375
AO-7 24 Nov 02:38:49 02:40:23 11° 84° (E) 02:41:57 29.400- 29.500
Oscar 19 24 Nov 02:40:02 02:44:53 42° 291° (WNW) 02:49:43 437.125/150
YUBILEINY 24 Nov 02:43:48 02:52:29 67° 93° (E) 03:01:10 435.215
ISS 24 Nov 02:49:25 02:52:09 24° 349° (N) 02:54:54 145.825
KKS-1 24 Nov 03:01:33 03:04:52 21° 267° (W) 03:08:13 437.445
RS-15 24 Nov 03:03:30 03:13:39 42° 251° (WSW) 03:24:15 29.354- 29.394
SO-50 24 Nov 03:26:57 03:30:03 18° 110° (ESE) 03:33:13 436.795
ITAMSAT 1 24 Nov 03:27:59 03:32:47 40° 292° (WNW) 03:37:34 435.822/435.867
PCSat 24 Nov 03:28:33 03:31:56 16° 37° (NE) 03:35:17 145.827
BEESAT 2 24 Nov 03:41:02 03:42:19 11° 32° (NNE) 03:43:37 435.950
Gurwin Techsat 1B 24 Nov 03:46:34 03:51:38 46° 291° (WNW) 03:56:41 435.225
MOZHAYETS 4 24 Nov 03:48:25 03:52:38 37° 70° (ENE) 03:56:54
AIST 2 24 Nov 04:05:25 04:06:32 11° 31° (NNE) 04:07:39 435.215
HORYU 2 24 Nov 04:06:01 04:10:24 54° 288° (WNW) 04:14:46 437.375
PRISM 24 Nov 04:15:28 04:17:52 15° 62° (ENE) 04:20:16 437.425
AO-7 24 Nov 04:26:34 04:34:51 61° 104° (ESE) 04:43:05 29.400- 29.500
ISS 24 Nov 04:26:50 04:29:33 23° 10° (N) 04:32:15 145.825
YUBILEINY 24 Nov 04:42:34 04:49:58 30° 294° (WNW) 04:57:25 435.215
JAS-2 24 Nov 04:43:18 04:49:36 32° 91° (E) 04:55:16 435.910
STRAND 1 24 Nov 05:01:32 05:05:18 21° 62° (ENE) 05:09:04 437.568
BEESAT 3 24 Nov 05:03:49 05:07:53 47° 51° (NE) 05:11:55 437.485
SO-50 24 Nov 05:05:41 05:10:09 56° 309° (NW) 05:14:46 436.795
PCSat 24 Nov 05:10:50 05:16:18 75° 58° (ENE) 05:21:42 145.827
BEESAT 2 24 Nov 05:17:21 05:21:32 58° 52° (NE) 05:25:39 435.950
CUBESAT XI-V 24 Nov 05:23:41 05:27:43 29° 67° (ENE) 05:31:47 437.345
MOZHAYETS 4 24 Nov 05:26:18 05:29:58 23° 267° (W) 05:33:41
AIST 2 24 Nov 05:41:56 05:46:11 52° 51° (NE) 05:50:21 435.215
PRISM 24 Nov 05:48:50 05:52:58 57° 259° (W) 05:57:09 437.425
Cubesat XI-IV 24 Nov 05:49:53 05:54:23 27° 94° (E) 05:58:51 437.490
AIST 1 24 Nov 05:57:37 06:00:14 15° 68° (ENE) 06:02:50
ISS 24 Nov 06:03:21 06:06:39 65° 29° (NNE) 06:09:56 145.825
AO-7 24 Nov 06:19:56 06:27:12 35° 303° (WNW) 06:34:29 29.400- 29.500
O/OREOS (USA 219) 24 Nov 06:25:59 06:30:25 63° 110° (ESE) 06:34:51 437.305
JAS-2 24 Nov 06:27:56 06:34:56 51° 293° (WNW) 06:41:10 435.910
CUTE-I 24 Nov 06:31:25 06:36:43 63° 102° (ESE) 06:41:57 437.470
STRAND 1 24 Nov 06:39:02 06:44:05 56° 259° (W) 06:49:09 437.568
BEESAT 3 24 Nov 06:42:49 06:45:48 19° 248° (WSW) 06:48:45 437.485
GONETS M04 24 Nov 06:42:57 06:47:06 14° 73° (ENE) 06:51:16
SO-50 24 Nov 06:49:40 06:51:46 13° 331° (NNW) 06:53:53 436.795
PCSat 24 Nov 06:55:47 06:59:03 16° 256° (WSW) 07:02:18 145.827
BEESAT 2 24 Nov 06:56:52 06:59:23 16° 250° (WSW) 07:01:52 435.950
CUBESAT XI-V 24 Nov 07:00:51 07:05:05 32° 264° (W) 07:09:20 437.345
AIST 2 24 Nov 07:21:32 07:24:25 18° 249° (WSW) 07:27:17 435.215
Cubesat XI-IV 24 Nov 07:29:37 07:34:36 42° 292° (WNW) 07:39:33 437.490
AIST 1 24 Nov 07:33:59 07:38:16 52° 266° (W) 07:42:28
ISS 24 Nov 07:40:39 07:43:00 18° 226° (SW) 07:45:20 145.825
O/OREOS (USA 219) 24 Nov 08:07:24 08:10:15 16° 309° (NW) 08:13:07 437.305
CUTE-I 24 Nov 08:12:33 08:16:18 20° 300° (WNW) 08:20:01 437.470
JAS-2 24 Nov 08:16:20 08:18:07 11° 315° (NW) 08:19:52 435.910
CUTE 1.7 & AOD 2 24 Nov 08:16:41 08:19:27 17° 91° (E) 08:22:13 437.475
GONETS M04 24 Nov 08:33:30 08:42:14 73° 94° (E) 08:51:03
GOMX 1 24 Nov 08:42:39 08:45:48 21° 94° (E) 08:48:58 467.674
Oscar 11 24 Nov 08:47:34 08:49:13 12° 89° (E) 08:50:51 145.826/435.025
SEEDS 24 Nov 08:51:31 08:55:24 33° 97° (E) 08:59:17 437.485
POLYITAN 1 24 Nov 08:59:14 09:01:14 13° 61° (ENE) 09:03:14 437.675
HO-68 24 Nov 09:00:03 09:07:05 54° 101° (E) 09:14:02 435.675
BRITE-PL 24 Nov 09:00:18 09:04:17 44° 99° (E) 09:08:15 437.365/2234.400
CINEMA 3 24 Nov 09:01:46 09:04:19 16° 92° (E) 09:06:55 145.822/145.860
QB50P2 24 Nov 09:01:51 09:04:04 14° 62° (ENE) 09:06:17 145.880/145.840
DX 1 24 Nov 09:07:12 09:10:04 17° 92° (E) 09:12:55 434.975-435.025
DUCHIFAT 1 24 Nov 09:08:47 09:11:24 16° 63° (ENE) 09:14:01 145.980
AAUSAT CUBESAT 2 24 Nov 09:12:25 09:16:27 42° 98° (E) 09:20:29 437.432
TIGRISAT 24 Nov 09:12:25 09:15:49 24° 66° (ENE) 09:19:14 435.000
CANX-2 24 Nov 09:16:24 09:20:42 80° 102° (ESE) 09:25:00 2200.000
UNISAT 6 24 Nov 09:24:28 09:28:15 32° 69° (ENE) 09:32:03 437.425
COMPASS 1 24 Nov 09:26:09 09:30:24 69° 102° (ESE) 09:34:38 437.405
NANOSAT C BR1 24 Nov 09:26:53 09:30:19 24° 67° (ENE) 09:33:45 145.865
DELFI C3 24 Nov 09:28:11 09:31:44 27° 95° (E) 09:35:16 145.870
ZACube-1 24 Nov 09:33:47 09:36:30 17° 92° (E) 09:39:14 437.345
QB50P1 24 Nov 09:36:09 09:39:52 30° 68° (ENE) 09:43:36 145.935-145.965
DOVE 4 24 Nov 09:47:01 09:51:11 79° 102° (ESE) 09:55:26 437.250
CUTE 1.7 & AOD 2 24 Nov 09:51:31 09:55:38 46° 288° (WNW) 09:59:45 437.475
ANTELSAT 24 Nov 09:52:28 09:56:41 64° 74° (ENE) 10:00:56 437.575/2403.000
AISAT 24 Nov 09:52:58 09:55:55 17° 92° (E) 09:58:51 437.250
BUGSAT 1 24 Nov 09:56:58 10:00:58 41° 71° (ENE) 10:04:59 437.445
POPSAT HIP 1 24 Nov 10:00:10 10:04:19 54° 73° (ENE) 10:08:29 437.405
FUNcube-1 24 Nov 10:08:28 10:12:24 38° 98° (E) 10:16:24 145.935
UKube-1 24 Nov 10:08:39 10:13:00 75° 103° (ESE) 10:17:19 .
CUBEBUG 1 24 Nov 10:15:41 10:16:00 10° 88° (E) 10:16:18 437.445
